Alexander City, AL

2:40 AM CDT on August 19, 2017 (GMT -0500)
Russell

Weather History for KALX - June, 2013

Change the Weather History Date:

Sunday, June 16, 2013

  Actual Average (KAUO) Record (KAUO)
Temperature  
Mean Temperature 80 °F -  
Max Temperature 91 °F 87 °F 98 °F (1963)
Min Temperature 70 °F 64 °F 54 °F (1960)
Cooling Degree Days 16    
Growing Degree Days 30 (Base 50)    
Moisture  
Dew Point 70 °F    
Average Humidity 69    
Maximum Humidity 85    
Minimum Humidity 47    
Precipitation  
Precipitation 0.00 in - - ()
Sea Level Pressure  
Sea Level Pressure 30.08 in    
Wind  
Wind Speed 1 mph (South)    
Max Wind Speed 7 mph    
Max Gust Speed -    
Visibility 10 miles    
Events Rain , Thunderstorm    
Averages and records for this station are not official NWS values.
T = Trace of Precipitation, MM = Missing Value Source: NWS Daily Summary

Daily Weather History Graph

Daily Weather History Graph

Search for Another Location

Airport or City:

Trip Planner

Search our weather history database for the weather conditions in past years. The results will help you decide how hot, cold, wet, or windy it might be!

Date:

Astronomy

Jun. 16, 2013 Rise Set
Actual Time 5:35 AM CDT 7:54 PM CDT
Civil Twilight 5:06 AM CDT 8:22 PM CDT
Nautical Twilight 4:31 AM CDT 8:58 PM CDT
Astronomical Twilight 3:53 AM CDT 9:36 PM CDT
Moon 12:48 PM CDT (6/16) 12:19 AM CDT (6/16)
Length of Visible Light 15h 16m
Length of Day
14h 19m
Waxing Crescent, 50% of the Moon is Illuminated
Jun 16
Waxing Crescent
Jun 16
First Quarter
Jun 23
Full
Jun 29
Last Quarter
Jul 8
New

Hourly Weather History & Observations

Time (CDT) Temp. Heat Index Dew Point Humidity Pressure Visibility Wind Dir Wind Speed Gust Speed Precip Events Conditions
12:15 AM 75.6 °F - 66.2 °F 73% 30.10 in 10.0 mi Calm Calm - N/A   Clear
12:35 AM 75.6 °F - 63.0 °F 65% 30.10 in 10.0 mi Calm Calm - N/A   Clear
12:55 AM 75.6 °F - 65.1 °F 70% 30.09 in 10.0 mi Calm Calm - N/A   Clear
1:15 AM 75.6 °F - 65.3 °F 70% 30.09 in 10.0 mi Calm Calm - N/A   Clear
1:35 AM 75.6 °F - 65.5 °F 71% 30.09 in 10.0 mi Calm Calm - N/A   Clear
1:55 AM 75.6 °F - 66.7 °F 74% 30.08 in 10.0 mi Calm Calm - N/A   Clear
2:15 AM 73.2 °F - 65.1 °F 76% 30.08 in 10.0 mi Calm Calm - N/A   Clear
2:35 AM 72.0 °F - 65.1 °F 79% 30.08 in 10.0 mi Calm Calm - N/A   Clear
2:55 AM 70.7 °F - 64.4 °F 80% 30.08 in 10.0 mi Calm Calm - N/A   Clear
3:15 AM 71.6 °F - 64.4 °F 78% 30.07 in 10.0 mi Calm Calm - N/A   Clear
3:35 AM 70.9 °F - 64.2 °F 79% 30.07 in 10.0 mi Calm Calm - N/A   Clear
3:55 AM 70.7 °F - 64.4 °F 80% 30.08 in 10.0 mi Calm Calm - N/A   Clear
4:15 AM 70.7 °F - 64.4 °F 80% 30.09 in 10.0 mi Calm Calm - N/A   Scattered Clouds
4:35 AM 71.4 °F - 64.4 °F 78% 30.09 in 10.0 mi Calm Calm - N/A   Scattered Clouds
4:55 AM 70.7 °F - 64.0 °F 79% 30.09 in 10.0 mi Calm Calm - N/A   Scattered Clouds
5:15 AM 70.7 °F - 64.4 °F 80% 30.10 in 10.0 mi Calm Calm - N/A   Scattered Clouds
5:35 AM 70.7 °F - 64.4 °F 80% 30.11 in 10.0 mi Calm Calm - N/A   Clear
5:55 AM 70.7 °F - 64.8 °F 81% 30.11 in 10.0 mi Calm Calm - N/A   Clear
6:15 AM 70.7 °F - 64.9 °F 82% 30.11 in 10.0 mi ENE 3.5 mph - N/A   Clear
6:35 AM 70.7 °F - 65.3 °F 83% 30.11 in 10.0 mi Calm Calm - N/A   Scattered Clouds
6:55 AM 72.5 °F - 66.6 °F 82% 30.12 in 10.0 mi Calm Calm - N/A   Scattered Clouds
7:15 AM 75.6 °F - 68.7 °F 79% 30.12 in 10.0 mi Calm Calm - N/A   Scattered Clouds
7:35 AM 75.6 °F - 68.2 °F 78% 30.13 in 10.0 mi Calm Calm - N/A   Mostly Cloudy
7:55 AM 78.1 °F - 69.6 °F 75% 30.13 in 10.0 mi Calm Calm - N/A   Scattered Clouds
8:15 AM 78.3 °F - 69.3 °F 74% 30.14 in 10.0 mi Calm Calm - N/A   Clear
8:35 AM 78.6 °F - 70.0 °F 75% 30.15 in 10.0 mi SE 3.5 mph - N/A   Mostly Cloudy
8:55 AM 80.6 °F 84.4 °F 71.4 °F 73% 30.15 in 10.0 mi SE 4.6 mph - N/A   Mostly Cloudy
9:15 AM 80.8 °F 84.7 °F 71.6 °F 73% 30.15 in 10.0 mi SSW 3.5 mph - N/A   Mostly Cloudy
9:35 AM 82.6 °F 87.6 °F 72.0 °F 70% 30.14 in 10.0 mi SE 4.6 mph - N/A   Scattered Clouds
9:55 AM 83.3 °F 88.7 °F 72.1 °F 69% 30.13 in 10.0 mi SSW 6.9 mph - N/A   Scattered Clouds
10:15 AM 83.3 °F 88.7 °F 72.3 °F 69% 30.13 in 10.0 mi SSE 3.5 mph - N/A   Mostly Cloudy
10:35 AM 83.3 °F 88.4 °F 71.8 °F 68% 30.13 in 10.0 mi SW 5.8 mph - N/A   Scattered Clouds
10:55 AM 84.4 °F 90.0 °F 72.0 °F 66% 30.13 in 10.0 mi SE 6.9 mph - N/A   Scattered Clouds
11:15 AM 84.6 °F 90.0 °F 71.6 °F 65% 30.12 in 10.0 mi SSW 6.9 mph - N/A   Mostly Cloudy
11:35 AM 88.2 °F 96.4 °F 73.6 °F 62% 30.12 in 10.0 mi South 5.8 mph - N/A   Scattered Clouds
11:55 AM 86.7 °F 93.3 °F 72.5 °F 62% 30.11 in 10.0 mi SW 6.9 mph - N/A   Mostly Cloudy
12:15 PM 88.3 °F 96.4 °F 73.2 °F 61% 30.10 in 10.0 mi SSW 3.5 mph - N/A   Mostly Cloudy
12:35 PM 90.7 °F 100.1 °F 74.3 °F 58% 30.10 in 10.0 mi South 4.6 mph - N/A   Scattered Clouds
12:55 PM 90.7 °F 101.3 °F 74.8 °F 60% 30.10 in 10.0 mi ESE 4.6 mph - N/A   Scattered Clouds
1:15 PM 90.7 °F 100.1 °F 74.1 °F 58% 30.09 in 10.0 mi South 4.6 mph - N/A   Scattered Clouds
1:35 PM 90.7 °F 100.1 °F 74.1 °F 58% 30.08 in 10.0 mi South 6.9 mph - N/A   Scattered Clouds
1:55 PM 90.7 °F 96.4 °F 70.2 °F 51% 30.07 in 10.0 mi South 5.8 mph - N/A   Scattered Clouds
2:15 PM 90.7 °F 96.9 °F 70.9 °F 52% 30.07 in 10.0 mi SE 5.8 mph - N/A   Scattered Clouds
2:35 PM 90.7 °F 96.9 °F 71.1 °F 52% 30.06 in 10.0 mi South 6.9 mph - N/A   Scattered Clouds
2:55 PM 90.7 °F 95.9 °F 69.6 °F 50% 30.05 in 10.0 mi SSE 5.8 mph - N/A   Scattered Clouds
3:15 PM 90.7 °F 95.4 °F 69.1 °F 49% 30.04 in 10.0 mi SE 5.8 mph - N/A   Clear
3:35 PM 91.8 °F 96.5 °F 68.7 °F 47% 30.04 in 10.0 mi Calm Calm - N/A   Clear
3:55 PM 91.8 °F 98.1 °F 70.5 °F 50% 30.03 in 10.0 mi South 5.8 mph - N/A   Scattered Clouds
4:15 PM 91.0 °F 95.6 °F 69.1 °F 48% 30.03 in 10.0 mi South 4.6 mph - N/A   Clear
4:35 PM 91.4 °F 96.3 °F 69.3 °F 48% 30.03 in 10.0 mi Calm Calm - N/A   Clear
4:55 PM 91.2 °F 96.0 °F 68.9 °F 48% 30.03 in 10.0 mi South 5.8 mph - N/A   Scattered Clouds
5:15 PM 90.7 °F 95.4 °F 68.9 °F 49% 30.03 in 10.0 mi SSW 5.8 mph - N/A   Scattered Clouds
5:35 PM 90.7 °F 95.0 °F 68.7 °F 48% 30.02 in 10.0 mi SSW 6.9 mph - N/A   Clear
5:55 PM 90.7 °F 95.9 °F 69.8 °F 50% 30.02 in 10.0 mi SSW 6.9 mph - N/A   Clear
6:15 PM 90.7 °F 97.9 °F 72.0 °F 54% 30.01 in 10.0 mi Calm Calm - N/A   Clear
6:35 PM 90.7 °F 97.9 °F 72.1 °F 54% 30.02 in 10.0 mi Calm Calm - N/A   Clear
6:55 PM 88.2 °F 95.5 °F 72.9 °F 60% 30.03 in 10.0 mi Calm Calm - N/A Thunderstorm Clear
7:15 PM 84.9 °F 90.7 °F 71.8 °F 65% 30.03 in 10.0 mi Calm Calm - N/A   Clear
7:35 PM 84.2 °F 89.9 °F 72.1 °F 67% 30.02 in 10.0 mi Calm Calm - N/A   Clear
7:55 PM 83.3 °F 89.0 °F 72.7 °F 70% 30.03 in 10.0 mi Calm Calm - N/A   Clear
8:15 PM 83.3 °F 88.7 °F 72.3 °F 69% 30.04 in 10.0 mi Calm Calm - N/A Thunderstorm Scattered Clouds
8:35 PM 83.3 °F 89.0 °F 72.5 °F 70% 30.04 in 10.0 mi Calm Calm - N/A Thunderstorm Scattered Clouds
8:55 PM 81.9 °F 87.7 °F 74.1 °F 77% 30.03 in 10.0 mi Calm Calm - N/A   Scattered Clouds
9:15 PM 80.8 °F 86.1 °F 74.5 °F 81% 30.04 in 10.0 mi Calm Calm - N/A Thunderstorm Scattered Clouds
9:35 PM 80.6 °F 85.5 °F 73.9 °F 80% 30.04 in 10.0 mi Calm Calm - N/A Thunderstorm Mostly Cloudy
9:55 PM 80.6 °F 85.9 °F 74.5 °F 82% 30.04 in 10.0 mi Calm Calm - N/A Rain , Thunderstorm Light Thunderstorms and Rain
10:15 PM 80.6 °F 86.4 °F 75.6 °F 85% 30.04 in 10.0 mi Calm Calm - N/A Thunderstorm Scattered Clouds
10:35 PM 80.6 °F 86.4 °F 75.6 °F 85% 30.04 in 10.0 mi Calm Calm - N/A Thunderstorm Thunderstorm
10:55 PM 79.9 °F - 74.8 °F 85% 30.05 in 10.0 mi Calm Calm - N/A   Scattered Clouds
11:15 PM 80.6 °F 86.2 °F 75.4 °F 84% 30.04 in 10.0 mi Calm Calm - N/A   Mostly Cloudy
11:35 PM 78.1 °F - 73.4 °F 85% 30.04 in 10.0 mi Calm Calm - N/A Thunderstorm Scattered Clouds
11:55 PM 80.6 °F 85.7 °F 74.3 °F 81% 30.04 in 10.0 mi Calm Calm - N/A   Scattered Clouds